Glen Aubrey, NY

9:52 PM EST on February 11, 2016 (GMT -0500)
Binghamton Regional-Link

Weather History for KBGM - August, 2014

Change the Weather History Date:

Saturday, August 23, 2014

  Actual Average Record
Temperature  
Mean Temperature 63 °F 67 °F  
Max Temperature 65 °F 76 °F 85 °F (1974)
Min Temperature 60 °F 58 °F 43 °F (1952)
Degree Days  
Heating Degree Days 2 1  
Month to date heating degree days 31 23  
Since 1 June heating degree days 101 138  
Since 1 July heating degree days 56 47  
Cooling Degree Days 0 3  
Month to date cooling degree days 56 88  
Year to date cooling degree days 289 323  
Since 1 June cooling degree days 264 300  
Growing Degree Days 12 (Base 50)    
Moisture  
Dew Point 60 °F    
Average Humidity 89    
Maximum Humidity 100    
Minimum Humidity 78    
Precipitation  
Precipitation 0.07 in 0.11 in 1.05 in (2010)
Month to date precipitation 5.06 2.58  
Year to date precipitation 28.63 25.34  
Snow  
Snow 0.00 in 0.00 in T in (1989)
Month to date snowfall 0.0 0.0  
Since 1 June snowfall T 0.0  
Since 1 July snowfall T 0.0  
Snow Depth 0.00 in    
Sea Level Pressure  
Sea Level Pressure 30.11 in    
Wind  
Wind Speed 5 mph (SE)    
Max Wind Speed 13 mph    
Max Gust Speed 16 mph    
Visibility 8 miles    
Events Rain    
T = Trace of Precipitation, MM = Missing Value Source: NWS Daily Summary

Daily Weather History Graph

Daily Weather History Graph

Search for Another Location

Airport or City:

Trip Planner

Search our weather history database for the weather conditions in past years. The results will help you decide how hot, cold, wet, or windy it might be!

Date:

Astronomy

Aug. 23, 2014 Rise Set
Actual Time 6:19 AM EDT 7:52 PM EDT
Civil Twilight 5:50 AM EDT 8:21 PM EDT
Nautical Twilight 5:14 AM EDT 8:57 PM EDT
Astronomical Twilight 4:36 AM EDT 9:35 PM EDT
Moon 4:33 AM EDT (8/23) 6:36 PM EDT (8/23)
Length of Visible Light 14h 31m
Length of Day
13h 32m
Waning Crescent, 3% of the Moon is Illuminated
Aug 23
Waning Crescent
Aug 25
New
Sep 2
First Quarter
Sep 8
Full
Sep 15
Last Quarter

Hourly Weather History & Observations

Time (EDT) Temp. Dew Point Humidity Pressure Visibility Wind Dir Wind Speed Gust Speed Precip Events Conditions
12:49 AM 62.6 °F 60.8 °F 94% 30.06 in 10.0 mi SSE 9.2 mph - N/A   Overcast
12:53 AM 63.0 °F 61.0 °F 93% 30.04 in 10.0 mi SSE 10.4 mph - N/A   Overcast
1:30 AM 62.6 °F 59.0 °F 88% 30.06 in 10.0 mi SSE 9.2 mph - N/A   Overcast
1:53 AM 62.1 °F 59.0 °F 90% 30.04 in 10.0 mi SSE 9.2 mph - N/A   Overcast
2:27 AM 62.6 °F 59.0 °F 88% 30.05 in 10.0 mi SSE 10.4 mph - N/A   Overcast
2:46 AM 62.6 °F 59.0 °F 88% 30.05 in 10.0 mi SSE 9.2 mph - N/A   Overcast
2:53 AM 62.1 °F 59.0 °F 90% 30.03 in 10.0 mi SSE 10.4 mph - N/A   Overcast
3:53 AM 62.1 °F 59.0 °F 90% 30.04 in 10.0 mi SE 4.6 mph - N/A   Overcast
4:53 AM 62.6 °F 59.0 °F 88% 30.06 in 10.0 mi SE 4.6 mph - N/A   Overcast
5:53 AM 62.1 °F 59.0 °F 90% 30.06 in 10.0 mi SSE 3.5 mph - N/A   Overcast
6:53 AM 62.1 °F 57.9 °F 86% 30.07 in 10.0 mi SSE 4.6 mph - N/A   Overcast
7:53 AM 62.1 °F 59.0 °F 90% 30.08 in 10.0 mi SE 4.6 mph - N/A   Overcast
8:53 AM 63.0 °F 59.0 °F 87% 30.09 in 10.0 mi SE 6.9 mph - N/A   Overcast
9:53 AM 64.0 °F 57.9 °F 80% 30.09 in 10.0 mi SSE 9.2 mph - N/A   Overcast
10:53 AM 64.4 °F 57.2 °F 77% 30.11 in 10.0 mi South 8.1 mph - N/A   Overcast
11:53 AM 64.0 °F 59.0 °F 84% 30.11 in 10.0 mi SSE 5.8 mph - N/A   Overcast
12:06 PM 64.4 °F 59.0 °F 83% 30.12 in 10.0 mi SE 5.8 mph - N/A   Overcast
12:36 PM 62.6 °F 60.8 °F 94% 30.12 in 7.0 mi East 5.8 mph - 0.00 in   Overcast
12:45 PM 62.6 °F 60.8 °F 94% 30.12 in 4.0 mi ESE 4.6 mph - 0.00 in Rain Light Rain
12:53 PM 62.1 °F 61.0 °F 96% 30.11 in 4.0 mi ESE 5.8 mph - 0.00 in Rain Light Rain
1:53 PM 63.0 °F 61.0 °F 93% 30.12 in 9.0 mi East 6.9 mph - 0.00 in   Overcast
2:28 PM 62.6 °F 60.8 °F 94% 30.13 in 2.5 mi ESE 6.9 mph - 0.01 in Rain Light Rain
2:37 PM 62.6 °F 60.8 °F 94% 30.13 in 1.5 mi SE 8.1 mph - 0.02 in Rain Light Rain
2:53 PM 62.1 °F 61.0 °F 96% 30.13 in 1.2 mi ESE 6.9 mph - 0.04 in Rain Light Rain
3:28 PM 62.6 °F 60.8 °F 94% 30.14 in 2.0 mi SE 4.6 mph - 0.01 in Rain Light Rain
3:40 PM 62.6 °F 62.6 °F 100% 30.14 in 2.0 mi SE 5.8 mph - 0.02 in Rain Light Rain
3:48 PM 62.6 °F 62.6 °F 100% 30.14 in 2.0 mi ESE 4.6 mph - 0.03 in Rain Light Rain
3:53 PM 63.0 °F 62.1 °F 97% 30.13 in 2.0 mi East 5.8 mph - 0.03 in Rain Light Rain
4:17 PM 62.6 °F 60.8 °F 94% 30.14 in 6.0 mi SE 6.9 mph - 0.00 in   Overcast
4:42 PM 62.6 °F 60.8 °F 94% 30.15 in 9.0 mi SE 5.8 mph - 0.00 in   Overcast
4:49 PM 62.6 °F 60.8 °F 94% 30.15 in 8.0 mi SSE 5.8 mph - 0.00 in Rain Light Rain
4:53 PM 62.6 °F 60.8 °F 94% 30.15 in 10.0 mi SSE 6.9 mph - N/A Rain Light Rain
4:57 PM 62.6 °F 60.8 °F 94% 30.15 in 10.0 mi South 6.9 mph - 0.00 in   Overcast
5:04 PM 62.6 °F 60.8 °F 94% 30.15 in 10.0 mi South 6.9 mph - 0.00 in   Overcast
5:43 PM 62.6 °F 60.8 °F 94% 30.15 in 10.0 mi SE 8.1 mph - 0.00 in   Overcast
5:53 PM 63.0 °F 61.0 °F 93% 30.14 in 10.0 mi SSE 6.9 mph - 0.00 in   Overcast
6:03 PM 62.6 °F 60.8 °F 94% 30.15 in 10.0 mi SE 8.1 mph - N/A   Overcast
6:53 PM 62.1 °F 60.1 °F 93% 30.14 in 10.0 mi SSE 3.5 mph - N/A   Overcast
7:00 PM 62.6 °F 60.8 °F 94% 30.15 in 10.0 mi Calm Calm - N/A   Overcast
7:10 PM 62.6 °F 60.8 °F 94% 30.15 in 10.0 mi Calm Calm - N/A   Overcast
7:53 PM 62.1 °F 60.1 °F 93% 30.14 in 10.0 mi East 3.5 mph - N/A   Overcast
8:53 PM 62.1 °F 60.1 °F 93% 30.15 in 10.0 mi Calm Calm - N/A   Overcast
9:53 PM 62.1 °F 60.1 °F 93% 30.14 in 10.0 mi East 4.6 mph - N/A   Mostly Cloudy
10:53 PM 60.8 °F 59.0 °F 94% 30.16 in 10.0 mi ENE 3.5 mph - N/A   Scattered Clouds
11:53 PM 60.1 °F 59.0 °F 96% 30.16 in 6.0 mi West 4.6 mph - N/A   Overcast